Location: Bourg-d�Oueil
(42.8588°N, 0.4991°E)
Time: 20:32:53
(UTC+00:00)

ATLAS 3B R/B - Pass Details

Date: 16 June 2021
Orbit: 1003 x 1191 km, 63.8° (Epoch: 21 July)

Event Time Altitude Azimuth Distance (km) Brightness Sun altitude
Exits shadow 23:05:06 - 235° (SW) 3,626 5.3 -22.6°
Reaches altitude 10° 23:07:30 10° 241° (WSW) 2,783 4.7 -22.7°
Maximum altitude 23:13:46 47° 314° (NW) 1,338 3.5 -22.9°
Drops below altitude 10° 23:20:16 10° 28° (NNE) 2,884 5.7 -23.2°
Sets 23:23:06 0° 34° (NE) 3,869 6.3 -23.2°
